| time (UTC) | temp C | wind direction | speed KPH | gust KPH | rain 1hr cm | rain 24hr cm | rain mn cm | humidity % | barometer mb |
| 20260507065102 | 12 | 233 | 0.0 | 1.6 | 0.00 | 0.00 | 0.00 | 87 | 1020.3 |
| 20260507064533 | 12 | 233 | 0.0 | 1.6 | 0.00 | 0.00 | 0.00 | 86 | 1020.3 |
| 20260507064101 | 12 | 233 | 0.0 | 1.6 | 0.00 | 0.00 | 0.00 | 87 | 1020.1 |
| 20260507063532 | 12 | 233 | 0.0 | 1.6 | 0.00 | 0.00 | 0.00 | 86 | 1020.2 |
| 20260507063044 | 12 | 233 | 0.0 | 1.6 | 0.00 | 0.00 | 0.00 | 86 | 1020.2 |
| 20260507062525 | 12 | 233 | 0.0 | 3.2 | 0.00 | 0.00 | 0.00 | 86 | 1020.2 |
| 20260507062055 | 12 | 216 | 1.6 | 3.2 | 0.00 | 0.00 | 0.00 | 86 | 1020.3 |
| 20260507061525 | 12 | 201 | 0.0 | 3.2 | 0.00 | 0.00 | 0.00 | 86 | 1020.3 |
| 20260507061034 | 12 | 201 | 0.0 | 3.2 | 0.00 | 0.00 | 0.00 | 87 | 1020.2 |
| 20260507060538 | 12 | 247 | 0.0 | 1.6 | 0.00 | 0.00 | 0.00 | 87 | 1020.2 |
| 20260507060049 | 12 | 227 | 0.0 | 1.6 | 0.00 | 0.00 | 0.00 | 87 | 1020.3 |
| 20260507055538 | 12 | 227 | 0.0 | 1.6 | 0.00 | 0.00 | 0.00 | 87 | 1020.3 |
| 20260507055050 | 12 | 228 | 0.0 | 0.0 | 0.00 | 0.00 | 0.00 | 86 | 1020.3 |
| 20260507054533 | 12 | 227 | 0.0 | 0.0 | 0.00 | 0.00 | 0.00 | 86 | 1020.3 |
| 20260507054045 | 12 | 228 | 0.0 | 0.0 | 0.00 | 0.00 | 0.00 | 86 | 1020.3 |
| 20260507053533 | 12 | 228 | 0.0 | 0.0 | 0.00 | 0.00 | 0.00 | 86 | 1020.2 |
| 20260507053037 | 12 | 228 | 0.0 | 1.6 | 0.00 | 0.00 | 0.00 | 86 | 1020.3 |
| 20260507052529 | 12 | 227 | 0.0 | 1.6 | 0.00 | 0.00 | 0.00 | 86 | 1020.4 |
| 20260507052040 | 12 | 227 | 1.6 | 1.6 | 0.00 | 0.00 | 0.00 | 86 | 1020.5 |
| 20260507051543 | 12 | 228 | 0.0 | 1.6 | 0.00 | 0.00 | 0.00 | 86 | 1020.6 |
| 20260507051055 | 12 | 228 | 1.6 | 1.6 | 0.00 | 0.00 | 0.00 | 86 | 1020.6 |
| 20260507050526 | 12 | 228 | 0.0 | 0.0 | 0.00 | 0.00 | 0.00 | 86 | 1020.6 |
| 20260507050028 | 12 | 228 | 0.0 | 0.0 | 0.00 | 0.00 | 0.00 | 86 | 1020.6 |
| 20260507045540 | 12 | 228 | 0.0 | 0.0 | 0.00 | 0.00 | 0.00 | 86 | 1020.6 |
| 20260507045029 | 12 | 228 | 0.0 | 0.0 | 0.00 | 0.00 | 0.00 | 86 | 1020.5 |
| 20260507044530 | 12 | 228 | 0.0 | 3.2 | 0.00 | 0.00 | 0.00 | 86 | 1020.5 |
| 20260507044035 | 12 | 228 | 0.0 | 3.2 | 0.00 | 0.00 | 0.00 | 85 | 1020.6 |
| 20260507043529 | 12 | 228 | 0.0 | 3.2 | 0.00 | 0.00 | 0.00 | 85 | 1020.4 |
| 20260507043031 | 12 | 226 | 1.6 | 3.2 | 0.00 | 0.00 | 0.00 | 85 | 1020.5 |
| 20260507042524 | 12 | 238 | 0.0 | 1.6 | 0.00 | 0.00 | 0.00 | 86 | 1020.5 |
| 20260507042031 | 12 | 238 | 0.0 | 3.2 | 0.00 | 0.00 | 0.00 | 86 | 1020.4 |
| 20260507041534 | 12 | 238 | 0.0 | 3.2 | 0.00 | 0.00 | 0.00 | 86 | 1020.4 |
| 20260507041024 | 12 | 238 | 0.0 | 3.2 | 0.00 | 0.00 | 0.00 | 86 | 1020.5 |
| 20260507040553 | 12 | 238 | 0.0 | 0.0 | 0.00 | 0.00 | 0.00 | 86 | 1020.4 |
| 20260507040035 | 12 | 238 | 0.0 | 0.0 | 0.00 | 0.00 | 0.00 | 86 | 1020.3 |
| 20260507035546 | 12 | 238 | 0.0 | 0.0 | 0.00 | 0.00 | 0.00 | 86 | 1020.4 |
| 20260507035030 | 12 | 238 | 0.0 | 0.0 | 0.00 | 0.00 | 0.00 | 85 | 1020.3 |
| 20260507034541 | 12 | 238 | 0.0 | 0.0 | 0.00 | 0.00 | 0.00 | 85 | 1020.3 |
| 20260507034032 | 12 | 238 | 0.0 | 1.6 | 0.00 | 0.00 | 0.00 | 85 | 1020.1 |
| 20260507033534 | 12 | 238 | 0.0 | 3.2 | 0.00 | 0.00 | 0.00 | 85 | 1020.1 |
| 20260507033026 | 13 | 238 | 0.0 | 3.2 | 0.00 | 0.00 | 0.00 | 84 | 1020.2 |
| 20260507032538 | 13 | 238 | 0.0 | 1.6 | 0.00 | 0.00 | 0.00 | 84 | 1020.0 |
| 20260507032039 | 13 | 238 | 0.0 | 3.2 | 0.00 | 0.00 | 0.00 | 84 | 1020.0 |
| 20260507031553 | 13 | 285 | 1.6 | 6.4 | 0.00 | 0.00 | 0.00 | 84 | 1020.0 |
| 20260507031044 | 13 | 300 | 1.6 | 8.0 | 0.00 | 0.00 | 0.00 | 84 | 1019.9 |
| 20260507030526 | 13 | 323 | 3.2 | 8.0 | 0.00 | 0.00 | 0.00 | 84 | 1020.1 |
| 20260507030038 | 13 | 297 | 4.8 | 8.0 | 0.00 | 0.00 | 0.00 | 83 | 1020.0 |
| 20260507025531 | 13 | 285 | 4.8 | 8.0 | 0.00 | 0.00 | 0.00 | 83 | 1019.9 |
| 20260507025035 | 13 | 283 | 1.6 | 6.4 | 0.00 | 0.00 | 0.00 | 83 | 1019.9 |
| 20260507024527 | 13 | 293 | 0.0 | 6.4 | 0.00 | 0.00 | 0.00 | 84 | 1019.9 |
| 20260507024056 | 13 | 298 | 1.6 | 6.4 | 0.00 | 0.00 | 0.00 | 83 | 1019.9 |
| 20260507023545 | 13 | 278 | 1.6 | 4.8 | 0.00 | 0.00 | 0.00 | 83 | 1019.9 |
| 20260507023057 | 13 | 277 | 1.6 | 3.2 | 0.00 | 0.00 | 0.00 | 83 | 1019.8 |
| 20260507022546 | 13 | 276 | 1.6 | 6.4 | 0.00 | 0.00 | 0.00 | 83 | 1019.9 |
| 20260507022029 | 13 | 273 | 0.0 | 6.4 | 0.00 | 0.00 | 0.00 | 83 | 1019.8 |
| 20260507021541 | 13 | 290 | 0.0 | 4.8 | 0.00 | 0.00 | 0.00 | 83 | 1019.9 |
| 20260507021051 | 13 | 290 | 1.6 | 4.8 | 0.00 | 0.00 | 0.00 | 82 | 1019.9 |
| 20260507020543 | 13 | 302 | 3.2 | 4.8 | 0.00 | 0.00 | 0.00 | 83 | 1019.9 |
| 20260507020025 | 13 | 302 | 1.6 | 6.4 | 0.00 | 0.00 | 0.00 | 83 | 1019.9 |
| 20260507015535 | 13 | 343 | 4.8 | 8.0 | 0.00 | 0.00 | 0.00 | 82 | 1019.8 |
| 20260507015047 | 13 | 343 | 4.8 | 8.0 | 0.00 | 0.00 | 0.00 | 82 | 1019.8 |
| 20260507014529 | 13 | 326 | 4.8 | 8.0 | 0.00 | 0.00 | 0.00 | 82 | 1019.8 |
| 20260507014041 | 13 | 304 | 3.2 | 9.7 | 0.00 | 0.00 | 0.00 | 82 | 1019.8 |
| 20260507013525 | 13 | 306 | 3.2 | 9.7 | 0.00 | 0.00 | 0.00 | 82 | 1019.7 |
| 20260507013058 | 13 | 353 | 4.8 | 9.7 | 0.00 | 0.00 | 0.00 | 82 | 1019.7 |
| 20260507012529 | 13 | 316 | 6.4 | 9.7 | 0.00 | 0.00 | 0.00 | 81 | 1019.8 |
| 20260507012027 | 13 | 29 | 4.8 | 9.7 | 0.00 | 0.00 | 0.00 | 81 | 1019.7 |
| 20260507011540 | 13 | 336 | 4.8 | 9.7 | 0.00 | 0.00 | 0.00 | 81 | 1019.6 |
| 20260507011050 | 13 | 360 | 3.2 | 9.7 | 0.00 | 0.00 | 0.00 | 81 | 1019.7 |
| 20260507010541 | 13 | 360 | 6.4 | 9.7 | 0.00 | 0.00 | 0.00 | 81 | 1019.8 |
| 20260507010050 | 13 | 298 | 3.2 | 8.0 | 0.00 | 0.00 | 0.00 | 81 | 1019.8 |
| 20260507005552 | 14 | 20 | 4.8 | 8.0 | 0.00 | 0.00 | 0.00 | 80 | 1019.8 |
| 20260507005042 | 14 | 139 | 1.6 | 3.2 | 0.00 | 0.00 | 0.00 | 80 | 1019.9 |
| 20260507004532 | 14 | 243 | 1.6 | 4.8 | 0.00 | 0.00 | 0.00 | 81 | 1020.0 |
| 20260507003557 | 13 | 297 | 1.6 | 4.8 | 0.00 | 0.00 | 0.00 | 81 | 1019.9 |
| 20260507003040 | 14 | 287 | 1.6 | 4.8 | 0.00 | 0.00 | 0.00 | 80 | 1019.9 |
| 20260507002533 | 14 | 276 | 1.6 | 8.0 | 0.00 | 0.00 | 0.00 | 81 | 1019.9 |
| 20260507002046 | 13 | 356 | 0.0 | 8.0 | 0.00 | 0.00 | 0.00 | 80 | 1019.8 |
| 20260507001553 | 14 | 311 | 1.6 | 6.4 | 0.00 | 0.00 | 0.00 | 81 | 1019.8 |
| 20260507001044 | 13 | 328 | 3.2 | 11.3 | 0.00 | 0.00 | 0.00 | 81 | 1019.7 |
| 20260507000528 | 13 | 321 | 4.8 | 11.3 | 0.00 | 0.00 | 0.00 | 81 | 1019.9 |
| 20260507000037 | 13 | 353 | 3.2 | 9.7 | 0.00 | 0.00 | 0.00 | 81 | 1019.8 |
| 20260506235550 | 13 | 200 | 3.2 | 9.7 | 0.00 | 0.00 | 0.00 | 81 | 1019.8 |
| 20260506235033 | 13 | 287 | 1.6 | 16.1 | 0.00 | 0.00 | 0.00 | 81 | 1019.8 |
| 20260506234547 | 13 | 224 | 0.0 | 16.1 | 0.00 | 0.00 | 0.00 | 81 | 1019.9 |
| 20260506234026 | 13 | 347 | 4.8 | 9.7 | 0.00 | 0.00 | 0.00 | 82 | 1019.9 |
| 20260506233539 | 13 | 239 | 4.8 | 9.7 | 0.00 | 0.00 | 0.00 | 82 | 1019.9 |
| 20260506233047 | 13 | 306 | 4.8 | 11.3 | 0.00 | 0.00 | 0.00 | 82 | 1019.9 |
| 20260506232531 | 13 | 305 | 6.4 | 11.3 | 0.00 | 0.00 | 0.00 | 82 | 1019.9 |
| 20260506232022 | 13 | 314 | 4.8 | 9.7 | 0.00 | 0.00 | 0.00 | 82 | 1019.8 |
| 20260506231524 | 13 | 7 | 4.8 | 9.7 | 0.00 | 0.00 | 0.00 | 82 | 1019.9 |
| 20260506231037 | 13 | 356 | 6.4 | 12.9 | 0.00 | 0.00 | 0.00 | 82 | 1019.9 |
| 20260506230529 | 13 | 329 | 6.4 | 12.9 | 0.00 | 0.00 | 0.00 | 82 | 1020.0 |
| 20260506230041 | 13 | 347 | 6.4 | 14.5 | 0.00 | 0.00 | 0.00 | 82 | 1020.0 |
| 20260506225524 | 13 | 8 | 6.4 | 14.5 | 0.00 | 0.00 | 0.00 | 82 | 1019.9 |
| 20260506225035 | 13 | 322 | 4.8 | 12.9 | 0.00 | 0.00 | 0.00 | 82 | 1020.0 |
| 20260506224546 | 13 | 25 | 8.0 | 14.5 | 0.00 | 0.00 | 0.00 | 82 | 1020.0 |
| 20260506224029 | 13 | 17 | 8.0 | 17.7 | 0.00 | 0.00 | 0.00 | 82 | 1019.9 |
| 20260506223538 | 13 | 1 | 8.0 | 17.7 | 0.00 | 0.00 | 0.00 | 82 | 1019.9 |
| 20260506223048 | 13 | 359 | 4.8 | 12.9 | 0.00 | 0.00 | 0.00 | 83 | 1019.9 |
| 20260506222540 | 13 | 22 | 1.6 | 14.5 | 0.00 | 0.00 | 0.00 | 84 | 1020.0 |
| 20260506222040 | 13 | 340 | 3.2 | 14.5 | 0.00 | 0.00 | 0.00 | 84 | 1020.1 |
| 20260506221532 | 13 | 347 | 6.4 | 9.7 | 0.00 | 0.00 | 0.00 | 84 | 1020.1 |
| 20260506221043 | 13 | 1 | 4.8 | 11.3 | 0.00 | 0.00 | 0.00 | 84 | 1020.1 |
| 20260506220527 | 13 | 59 | 3.2 | 11.3 | 0.00 | 0.00 | 0.00 | 84 | 1020.1 |
| 20260506220040 | 13 | 347 | 6.4 | 11.3 | 0.00 | 0.00 | 0.00 | 84 | 1020.2 |
| 20260506215551 | 13 | 304 | 3.2 | 14.5 | 0.00 | 0.00 | 0.00 | 84 | 1020.2 |
| 20260506215054 | 13 | 27 | 6.4 | 14.5 | 0.00 | 0.00 | 0.00 | 83 | 1020.2 |
| 20260506214524 | 13 | 309 | 6.4 | 11.3 | 0.00 | 0.00 | 0.00 | 84 | 1020.2 |
| 20260506214034 | 13 | 15 | 4.8 | 14.5 | 0.00 | 0.00 | 0.00 | 85 | 1020.2 |
| 20260506213606 | 13 | 355 | 6.4 | 14.5 | 0.00 | 0.00 | 0.00 | 84 | 1020.1 |
| 20260506213024 | 13 | 345 | 8.0 | 12.9 | 0.00 | 0.00 | 0.00 | 84 | 1020.1 |
| 20260506212537 | 13 | 303 | 6.4 | 12.9 | 0.00 | 0.00 | 0.00 | 84 | 1020.1 |
| 20260506212049 | 12 | 285 | 4.8 | 12.9 | 0.00 | 0.00 | 0.00 | 85 | 1020.1 |
| 20260506211531 | 13 | 15 | 8.0 | 12.9 | 0.00 | 0.00 | 0.00 | 84 | 1020.1 |
| 20260506211100 | 13 | 360 | 6.4 | 11.3 | 0.00 | 0.00 | 0.00 | 85 | 1020.1 |
| 20260506210531 | 12 | 286 | 3.2 | 16.1 | 0.00 | 0.00 | 0.00 | 85 | 1020.1 |
| 20260506205524 | 13 | 339 | 8.0 | 14.5 | 0.00 | 0.00 | 0.00 | 83 | 1020.2 |
| 20260506205035 | 13 | 228 | 4.8 | 14.5 | 0.00 | 0.00 | 0.00 | 81 | 1020.2 |
| 20260506204525 | 14 | 55 | 6.4 | 12.9 | 0.00 | 0.00 | 0.00 | 78 | 1020.1 |
| 20260506204038 | 14 | 110 | 6.4 | 19.3 | 0.00 | 0.00 | 0.00 | 79 | 1020.0 |
| 20260506203540 | 14 | 190 | 8.0 | 19.3 | 0.00 | 0.00 | 0.00 | 79 | 1019.9 |
| 20260506203030 | 14 | 117 | 9.7 | 17.7 | 0.00 | 0.00 | 0.00 | 79 | 1019.9 |
| 20260506202540 | 14 | 116 | 11.3 | 17.7 | 0.00 | 0.00 | 0.00 | 79 | 1020.1 |
| 20260506202042 | 14 | 149 | 11.3 | 19.3 | 0.00 | 0.00 | 0.00 | 78 | 1019.9 |
| 20260506201535 | 14 | 140 | 11.3 | 19.3 | 0.00 | 0.00 | 0.00 | 79 | 1019.9 |
| 20260506201048 | 14 | 105 | 9.7 | 16.1 | 0.00 | 0.00 | 0.00 | 80 | 1019.8 |
| 20260506200531 | 14 | 111 | 9.7 | 16.1 | 0.00 | 0.00 | 0.00 | 80 | 1019.7 |
| 20260506200040 | 14 | 127 | 9.7 | 16.1 | 0.00 | 0.00 | 0.00 | 80 | 1019.8 |
| 20260506195524 | 13 | 134 | 9.7 | 14.5 | 0.00 | 0.00 | 0.00 | 80 | 1019.9 |
| 20260506195037 | 13 | 163 | 8.0 | 16.1 | 0.00 | 0.00 | 0.00 | 81 | 1019.9 |
| 20260506194528 | 13 | 101 | 6.4 | 16.1 | 0.00 | 0.00 | 0.00 | 82 | 1020.0 |
| 20260506194026 | 13 | 111 | 9.7 | 16.1 | 0.00 | 0.00 | 0.00 | 82 | 1020.0 |
| 20260506193539 | 13 | 78 | 6.4 | 14.5 | 0.00 | 0.00 | 0.00 | 82 | 1020.1 |
| 20260506193028 | 13 | 110 | 9.7 | 14.5 | 0.00 | 0.00 | 0.00 | 82 | 1019.8 |
| 20260506192531 | 13 | 188 | 4.8 | 14.5 | 0.00 | 0.00 | 0.00 | 82 | 1019.9 |
| 20260506192043 | 13 | 135 | 8.0 | 14.5 | 0.00 | 0.00 | 0.00 | 82 | 1019.7 |
| 20260506191532 | 13 | 114 | 8.0 | 19.3 | 0.00 | 0.00 | 0.00 | 83 | 1019.7 |
| 20260506191022 | 13 | 79 | 9.7 | 19.3 | 0.00 | 0.00 | 0.00 | 83 | 1019.7 |
| 20260506190532 | 13 | 213 | 4.8 | 17.7 | 0.00 | 0.00 | 0.00 | 84 | 1019.7 |
| 20260506190103 | 13 | 122 | 8.0 | 17.7 | 0.00 | 0.00 | 0.00 | 83 | 1019.6 |
| 20260506185546 | 13 | 113 | 9.7 | 17.7 | 0.00 | 0.00 | 0.00 | 83 | 1019.7 |
| 20260506185044 | 13 | 103 | 8.0 | 17.7 | 0.00 | 0.00 | 0.00 | 83 | 1019.6 |
| 20260506184527 | 13 | 108 | 9.7 | 17.7 | 0.00 | 0.00 | 0.00 | 83 | 1019.6 |
| 20260506184036 | 13 | 176 | 8.0 | 17.7 | 0.00 | 0.00 | 0.00 | 83 | 1019.6 |
| 20260506183543 | 13 | 95 | 11.3 | 22.5 | 0.00 | 0.00 | 0.00 | 84 | 1019.6 |
| 20260506183027 | 13 | 121 | 14.5 | 22.5 | 0.00 | 0.00 | 0.00 | 84 | 1019.6 |
| 20260506182539 | 13 | 122 | 9.7 | 17.7 | 0.00 | 0.00 | 0.00 | 85 | 1019.5 |
| 20260506182046 | 13 | 105 | 9.7 | 17.7 | 0.00 | 0.00 | 0.00 | 85 | 1019.5 |
| 20260506181529 | 13 | 135 | 9.7 | 17.7 | 0.00 | 0.00 | 0.00 | 85 | 1019.6 |
| 20260506181036 | 13 | 119 | 6.4 | 19.3 | 0.00 | 0.00 | 0.00 | 85 | 1019.6 |
| 20260506180549 | 13 | 115 | 11.3 | 19.3 | 0.00 | 0.00 | 0.00 | 85 | 1019.5 |
| 20260506180100 | 13 | 115 | 9.7 | 17.7 | 0.00 | 0.00 | 0.00 | 86 | 1019.4 |
| 20260506175541 | 13 | 160 | 11.3 | 16.1 | 0.00 | 0.00 | 0.00 | 85 | 1019.5 |
| 20260506175031 | 13 | 153 | 8.0 | 19.3 | 0.00 | 0.00 | 0.00 | 85 | 1019.5 |
| 20260506174545 | 13 | 86 | 9.7 | 19.3 | 0.00 | 0.00 | 0.00 | 85 | 1019.5 |
| 20260506174023 | 13 | 122 | 11.3 | 14.5 | 0.00 | 0.00 | 0.00 | 85 | 1019.3 |
| 20260506173604 | 13 | 102 | 9.7 | 14.5 | 0.00 | 0.00 | 0.00 | 85 | 1019.5 |
| 20260506173024 | 13 | 170 | 9.7 | 19.3 | 0.00 | 0.00 | 0.00 | 85 | 1019.4 |
| 20260506172535 | 13 | 100 | 11.3 | 19.3 | 0.00 | 0.00 | 0.00 | 85 | 1019.2 |
| 20260506172043 | 13 | 106 | 9.7 | 16.1 | 0.00 | 0.00 | 0.00 | 85 | 1019.1 |
| 20260506171525 | 13 | 138 | 9.7 | 16.1 | 0.00 | 0.00 | 0.00 | 86 | 1019.0 |
| 20260506171036 | 13 | 147 | 9.7 | 14.5 | 0.00 | 0.00 | 0.00 | 86 | 1019.0 |
| 20260506170549 | 13 | 132 | 9.7 | 14.5 | 0.00 | 0.00 | 0.00 | 86 | 1019.1 |
| 20260506170032 | 13 | 115 | 6.4 | 12.9 | 0.00 | 0.00 | 0.00 | 87 | 1019.1 |
| 20260506165545 | 13 | 106 | 6.4 | 12.9 | 0.00 | 0.00 | 0.00 | 87 | 1019.2 |
| 20260506165027 | 13 | 108 | 6.4 | 12.9 | 0.00 | 0.00 | 0.00 | 87 | 1019.4 |
| 20260506164559 | 13 | 117 | 4.8 | 12.9 | 0.00 | 0.00 | 0.00 | 87 | 1019.2 |
| 20260506164029 | 13 | 121 | 8.0 | 12.9 | 0.00 | 0.00 | 0.00 | 87 | 1019.2 |
| 20260506163542 | 13 | 113 | 8.0 | 14.5 | 0.00 | 0.00 | 0.00 | 87 | 1019.0 |
| 20260506163042 | 13 | 122 | 6.4 | 14.5 | 0.00 | 0.00 | 0.00 | 87 | 1019.2 |
| 20260506162532 | 13 | 123 | 4.8 | 12.9 | 0.00 | 0.00 | 0.00 | 86 | 1019.4 |
| 20260506162042 | 13 | 181 | 3.2 | 9.7 | 0.00 | 0.00 | 0.00 | 87 | 1019.4 |
| 20260506161524 | 12 | 129 | 4.8 | 9.7 | 0.00 | 0.00 | 0.00 | 87 | 1019.4 |
| 20260506161036 | 12 | 58 | 4.8 | 12.9 | 0.00 | 0.00 | 0.00 | 87 | 1019.2 |
| 20260506160547 | 12 | 156 | 4.8 | 12.9 | 0.00 | 0.00 | 0.00 | 87 | 1019.2 |
| 20260506160022 | 12 | 132 | 6.4 | 11.3 | 0.00 | 0.00 | 0.00 | 87 | 1019.2 |
| 20260506155533 | 12 | 110 | 8.0 | 14.5 | 0.00 | 0.00 | 0.00 | 87 | 1019.1 |
| 20260506155024 | 12 | 124 | 8.0 | 14.5 | 0.00 | 0.00 | 0.00 | 87 | 1019.1 |
| 20260506154524 | 12 | 108 | 8.0 | 14.5 | 0.00 | 0.00 | 0.00 | 87 | 1019.0 |
| 20260506154036 | 12 | 127 | 8.0 | 19.3 | 0.00 | 0.00 | 0.00 | 87 | 1018.9 |
| 20260506153548 | 12 | 138 | 12.9 | 19.3 | 0.00 | 0.00 | 0.00 | 88 | 1018.7 |
| 20260506153031 | 12 | 116 | 11.3 | 17.7 | 0.00 | 0.00 | 0.00 | 88 | 1018.7 |
| 20260506152544 | 12 | 122 | 11.3 | 19.3 | 0.00 | 0.00 | 0.00 | 89 | 1018.8 |
| 20260506152035 | 12 | 115 | 11.3 | 19.3 | 0.00 | 0.00 | 0.00 | 90 | 1018.5 |
| 20260506151546 | 12 | 127 | 11.3 | 20.9 | 0.00 | 0.00 | 0.00 | 90 | 1018.6 |
| 20260506151049 | 12 | 132 | 14.5 | 20.9 | 0.00 | 0.00 | 0.00 | 91 | 1018.6 |
| 20260506150539 | 12 | 127 | 11.3 | 16.1 | 0.00 | 0.00 | 0.00 | 92 | 1018.6 |
| 20260506150028 | 12 | 124 | 11.3 | 14.5 | 0.00 | 0.00 | 0.00 | 92 | 1018.7 |
| 20260506145532 | 11 | 129 | 9.7 | 12.9 | 0.00 | 0.00 | 0.00 | 93 | 1018.7 |
| 20260506145042 | 11 | 122 | 8.0 | 12.9 | 0.00 | 0.00 | 0.00 | 93 | 1018.8 |
| 20260506144532 | 11 | 140 | 1.6 | 4.8 | 0.00 | 0.00 | 0.00 | 93 | 1019.0 |
| 20260506144036 | 11 | 250 | 1.6 | 3.2 | 0.00 | 0.00 | 0.00 | 93 | 1019.1 |
| 20260506143527 | 11 | 186 | 0.0 | 9.7 | 0.00 | 0.00 | 0.00 | 94 | 1019.0 |
| 20260506143034 | 11 | 134 | 3.2 | 9.7 | 0.00 | 0.00 | 0.00 | 93 | 1018.7 |
| 20260506142603 | 11 | 127 | 4.8 | 9.7 | 0.00 | 0.00 | 0.00 | 94 | 1018.5 |
| 20260506142053 | 11 | 150 | 8.0 | 9.7 | 0.00 | 0.00 | 0.00 | 93 | 1018.5 |
| 20260506141537 | 11 | 140 | 4.8 | 6.4 | 0.00 | 0.00 | 0.00 | 93 | 1018.5 |
| 20260506141042 | 11 | 145 | 3.2 | 8.0 | 0.00 | 0.00 | 0.00 | 93 | 1018.6 |
| 20260506140525 | 11 | 132 | 6.4 | 8.0 | 0.00 | 0.00 | 0.00 | 93 | 1018.6 |
| 20260506140036 | 11 | 128 | 6.4 | 8.0 | 0.00 | 0.00 | 0.00 | 93 | 1018.6 |
| 20260506135549 | 11 | 179 | 4.8 | 8.0 | 0.00 | 0.00 | 0.00 | 93 | 1018.5 |
| 20260506135030 | 11 | 130 | 4.8 | 9.7 | 0.00 | 0.00 | 0.00 | 93 | 1018.5 |
| 20260506134542 | 11 | 121 | 6.4 | 11.3 | 0.00 | 0.00 | 0.00 | 93 | 1018.5 |
| 20260506134052 | 11 | 161 | 8.0 | 12.9 | 0.00 | 0.00 | 0.00 | 93 | 1018.4 |
| 20260506133542 | 11 | 134 | 8.0 | 12.9 | 0.00 | 0.00 | 0.00 | 93 | 1018.3 |
| 20260506133042 | 11 | 122 | 4.8 | 6.4 | 0.00 | 0.00 | 0.00 | 92 | 1018.5 |
| 20260506132534 | 11 | 188 | 3.2 | 6.4 | 0.00 | 0.00 | 0.00 | 93 | 1018.6 |
| 20260506132046 | 11 | 194 | 1.6 | 4.8 | 0.00 | 0.00 | 0.00 | 93 | 1018.4 |
| 20260506131529 | 11 | 195 | 0.0 | 4.8 | 0.00 | 0.00 | 0.00 | 93 | 1018.5 |
| 20260506131040 | 11 | 195 | 0.0 | 4.8 | 0.00 | 0.00 | 0.00 | 93 | 1018.6 |
| 20260506130551 | 11 | 185 | 1.6 | 4.8 | 0.00 | 0.00 | 0.00 | 93 | 1018.4 |
| 20260506130033 | 11 | 203 | 0.0 | 3.2 | 0.00 | 0.00 | 0.00 | 93 | 1018.4 |
| 20260506125608 | 11 | 236 | 0.0 | 1.6 | 0.00 | 0.00 | 0.00 | 93 | 1018.5 |
| 20260506125029 | 11 | 214 | 0.0 | 0.0 | 0.00 | 0.00 | 0.00 | 93 | 1018.3 |
| 20260506124542 | 11 | 214 | 0.0 | 0.0 | 0.00 | 0.00 | 0.00 | 93 | 1018.1 |
| 20260506124026 | 11 | 214 | 0.0 | 0.0 | 0.00 | 0.00 | 0.00 | 93 | 1018.1 |
| 20260506123539 | 11 | 214 | 0.0 | 0.0 | 0.00 | 0.00 | 0.00 | 93 | 1018.0 |
| 20260506123050 | 11 | 214 | 0.0 | 3.2 | 0.00 | 0.00 | 0.00 | 93 | 1018.0 |
| 20260506122539 | 11 | 213 | 0.0 | 3.2 | 0.00 | 0.00 | 0.00 | 93 | 1018.0 |
| 20260506122040 | 11 | 214 | 0.0 | 3.2 | 0.00 | 0.00 | 0.00 | 93 | 1018.0 |
| 20260506121532 | 11 | 234 | 0.0 | 0.0 | 0.00 | 0.00 | 0.00 | 93 | 1018.0 |
| 20260506121043 | 11 | 234 | 0.0 | 0.0 | 0.00 | 0.00 | 0.00 | 93 | 1018.1 |
| 20260506120527 | 11 | 235 | 0.0 | 0.0 | 0.00 | 0.00 | 0.00 | 93 | 1018.2 |
| 20260506120039 | 11 | 235 | 0.0 | 0.0 | 0.00 | 0.00 | 0.00 | 94 | 1018.0 |
| 20260506115551 | 11 | 235 | 0.0 | 0.0 | 0.00 | 0.00 | 0.00 | 93 | 1018.1 |
| 20260506115033 | 11 | 235 | 0.0 | 0.0 | 0.00 | 0.00 | 0.00 | 94 | 1018.1 |
| 20260506114526 | 11 | 234 | 0.0 | 0.0 | 0.00 | 0.00 | 0.00 | 94 | 1018.2 |
| 20260506114038 | 10 | 234 | 0.0 | 0.0 | 0.00 | 0.00 | 0.00 | 94 | 1018.1 |
| 20260506113541 | 10 | 234 | 0.0 | 0.0 | 0.00 | 0.00 | 0.00 | 94 | 1018.0 |
| 20260506113029 | 10 | 235 | 0.0 | 0.0 | 0.00 | 0.00 | 0.00 | 94 | 1017.9 |
| 20260506112541 | 10 | 234 | 0.0 | 0.0 | 0.00 | 0.00 | 0.00 | 94 | 1017.9 |
| 20260506112049 | 10 | 235 | 0.0 | 0.0 | 0.00 | 0.00 | 0.00 | 94 | 1017.9 |
| 20260506111529 | 10 | 234 | 0.0 | 0.0 | 0.00 | 0.00 | 0.00 | 94 | 1017.8 |
| 20260506111040 | 10 | 235 | 0.0 | 0.0 | 0.00 | 0.00 | 0.00 | 94 | 1017.8 |
| 20260506110524 | 10 | 234 | 0.0 | 0.0 | 0.00 | 0.00 | 0.00 | 94 | 1017.7 |
| 20260506110036 | 10 | 234 | 0.0 | 0.0 | 0.00 | 0.00 | 0.00 | 94 | 1017.6 |
| 20260506105529 | 10 | 234 | 0.0 | 0.0 | 0.00 | 0.00 | 0.00 | 94 | 1017.5 |
| 20260506105030 | 10 | 235 | 0.0 | 0.0 | 0.00 | 0.00 | 0.00 | 94 | 1017.4 |
| 20260506104551 | 10 | 234 | 0.0 | 1.6 | 0.00 | 0.00 | 0.00 | 94 | 1017.2 |
| 20260506104032 | 10 | 235 | 0.0 | 1.6 | 0.00 | 0.00 | 0.00 | 94 | 1017.2 |
| 20260506103526 | 10 | 234 | 0.0 | 1.6 | 0.00 | 0.00 | 0.00 | 94 | 1017.2 |
| 20260506103025 | 10 | 235 | 0.0 | 1.6 | 0.00 | 0.00 | 0.00 | 94 | 1017.2 |
| 20260506102537 | 10 | 234 | 0.0 | 1.6 | 0.00 | 0.00 | 0.00 | 94 | 1017.1 |
| 20260506102028 | 10 | 235 | 0.0 | 1.6 | 0.00 | 0.00 | 0.00 | 94 | 1017.1 |
| 20260506101532 | 10 | 235 | 0.0 | 0.0 | 0.00 | 0.00 | 0.00 | 94 | 1017.1 |
| 20260506101024 | 10 | 235 | 0.0 | 0.0 | 0.00 | 0.00 | 0.00 | 94 | 1017.1 |
| 20260506100551 | 10 | 234 | 0.0 | 1.6 | 0.00 | 0.00 | 0.00 | 94 | 1017.1 |
| 20260506100042 | 10 | 234 | 0.0 | 1.6 | 0.00 | 0.00 | 0.00 | 93 | 1017.0 |
| 20260506095552 | 10 | 234 | 1.6 | 3.2 | 0.00 | 0.00 | 0.00 | 94 | 1017.0 |
| 20260506095036 | 10 | 235 | 1.6 | 3.2 | 0.00 | 0.00 | 0.00 | 93 | 1017.0 |
| 20260506094528 | 10 | 235 | 3.2 | 3.2 | 0.00 | 0.00 | 0.00 | 94 | 1017.0 |
| 20260506094032 | 10 | 234 | 1.6 | 3.2 | 0.00 | 0.00 | 0.00 | 93 | 1017.0 |
| 20260506093524 | 10 | 235 | 1.6 | 3.2 | 0.00 | 0.00 | 0.00 | 93 | 1017.0 |
| 20260506093036 | 10 | 235 | 0.0 | 0.0 | 0.00 | 0.00 | 0.00 | 93 | 1016.9 |
| 20260506092539 | 10 | 234 | 0.0 | 0.0 | 0.00 | 0.00 | 0.00 | 94 | 1016.9 |
| 20260506092030 | 10 | 234 | 0.0 | 0.0 | 0.00 | 0.00 | 0.00 | 93 | 1016.9 |
| 20260506091543 | 10 | 234 | 0.0 | 1.6 | 0.00 | 0.00 | 0.00 | 93 | 1016.8 |
| 20260506091025 | 10 | 235 | 0.0 | 1.6 | 0.00 | 0.00 | 0.00 | 93 | 1016.8 |
| 20260506090558 | 10 | 235 | 0.0 | 3.2 | 0.00 | 0.00 | 0.00 | 93 | 1016.9 |
| 20260506090028 | 10 | 235 | 1.6 | 4.8 | 0.00 | 0.00 | 0.00 | 93 | 1017.0 |
| 20260506085538 | 10 | 246 | 1.6 | 4.8 | 0.00 | 0.00 | 0.00 | 92 | 1017.0 |
| 20260506085049 | 10 | 240 | 1.6 | 4.8 | 0.00 | 0.00 | 0.00 | 92 | 1016.9 |
| 20260506084533 | 10 | 233 | 1.6 | 4.8 | 0.00 | 0.00 | 0.00 | 93 | 1016.8 |
| 20260506084045 | 10 | 244 | 3.2 | 4.8 | 0.00 | 0.00 | 0.00 | 93 | 1016.8 |
| 20260506083528 | 10 | 240 | 1.6 | 3.2 | 0.00 | 0.00 | 0.00 | 92 | 1016.7 |
| 20260506083057 | 10 | 240 | 1.6 | 3.2 | 0.00 | 0.00 | 0.00 | 93 | 1016.6 |
| 20260506082528 | 10 | 251 | 1.6 | 3.2 | 0.00 | 0.00 | 0.00 | 92 | 1016.7 |
| 20260506082101 | 10 | 250 | 1.6 | 3.2 | 0.00 | 0.00 | 0.00 | 93 | 1016.6 |
| 20260506081524 | 10 | 250 | 1.6 | 1.6 | 0.00 | 0.00 | 0.00 | 92 | 1016.5 |
| 20260506081036 | 10 | 250 | 0.0 | 1.6 | 0.00 | 0.00 | 0.00 | 92 | 1016.4 |
| 20260506080548 | 10 | 250 | 1.6 | 3.2 | 0.00 | 0.00 | 0.00 | 92 | 1016.4 |
| 20260506073023 | 10 | 231 | 0.0 | 0.0 | 0.00 | 0.00 | 0.00 | 92 | 1016.0 |
| 20260506072535 | 10 | 231 | 0.0 | 0.0 | 0.00 | 0.00 | 0.00 | 93 | 1015.9 |
| 20260506072039 | 10 | 231 | 0.0 | 0.0 | 0.00 | 0.00 | 0.00 | 92 | 1016.0 |
| 20260506071530 | 10 | 231 | 0.0 | 0.0 | 0.00 | 0.00 | 0.00 | 92 | 1016.0 |
| 20260506071039 | 10 | 231 | 0.0 | 0.0 | 0.00 | 0.00 | 0.00 | 92 | 1015.9 |
| 20260506070541 | 10 | 231 | 0.0 | 0.0 | 0.00 | 0.00 | 0.00 | 92 | 1016.0 |